Hourly Data Report for April 14, 2018

CLYDE RIVER A
NUNAVUT
Current Station Operator: NAVCAN

70°29'09.000" N
68°31'01.000" W
26.50 m
2400804
71090
YCY

Download Data

Hourly Data (April 2018)
Hourly Data Report for April 14, 2018
TIME
LST
Temp Definition
°C
Dew Point Definition
°C
Rel Hum Definition
%
Precip. Amount Definition
mm

Wind Dir Definition
10's deg

Wind Spd Definition
km/h
Visibility Definition
km
Stn Press Definition
kPa
Hmdx Definition


Wind Chill Definition


Weather Definition


00:00 -27.1 -29.6 80 0.0 22 8 16.1 101.60   -35 LegendNANA
01:00 -26.6 -29.2 79 0.0 24 9 16.1 101.54   -35 LegendNANA
02:00 -27.1 -29.6 80 0.0 22 11 16.1 101.52   -36 LegendNANA
03:00 -26.9 -29.4 80 0.0 24 9 16.1 101.46   -35 LegendNANA
04:00 -27.7 -30.3 79 0.0 22 8 16.1 101.42   -35 LegendNANA
05:00 -27.1 -29.6 80 0.0 21 5 16.1 101.35   -32 LegendNANA
06:00 -26.1 -28.7 79 0.0 LegendMM 4 16.1 101.29   -30 LegendNANA
07:00 -26.9 -29.5 79 0.0 36 8 16.1 101.23   -34 LegendNANA
08:00 -24.3 -26.8 81 0.0 35 13 16.1 101.18   -34 LegendNANA
09:00 -20.8 -23.0 83 0.0 1 9 16.1 101.17   -28 LegendNANA
10:00 -20.6 -22.8 83 0.0 34 8 16.1 101.13   -27 LegendNANA
11:00 -18.4 -21.2 79 0.0 26 5 16.1 101.11   -22 LegendNANA
12:00 -16.9 -21.3 69 0.0 24 5 16.1 101.08   -21 LegendNANA
13:00 -17.1 -20.9 73 0.0   0 16.1 101.07     LegendNANA
14:00 -16.6 -20.5 72 0.0 1 4 16.1 101.07   -20 LegendNANA
15:00 -17.2 -20.1 78 0.0 4 5 16.1 101.08   -21 LegendNANA
16:00 -17.1 -20.4 76 0.0 36 4 16.1 101.13   -20 LegendNANA
17:00 -17.4 -20.3 79 0.0 2 5 16.1 101.18   -21 LegendNANA
18:00 -17.3 -21.4 71 0.0 28 5 16.1 101.22   -21 LegendNANA
19:00 -17.3 -22.0 67 0.0 28 11 16.1 101.27   -24 LegendNANA
20:00 -20.0 -23.4 75 0.0 30 5 16.1 101.30   -24 LegendNANA
21:00 -20.8 -24.8 71 0.0 26 8 16.1 101.32   -27 LegendNANA
22:00 -19.4 -23.5 71 0.0 26 9 16.1 101.36   -26 LegendNANA
23:00 -18.7 -22.3 74 0.0 29 30 16.1 101.38   -31 LegendNANA

Notes on Data Quality.

Legend

  • E = Estimated
  • M = Missing
  • NA = Not Available*
  • [empty] = Indicates an unobserved value
Date modified: